Weather History for KCNI - January, 2012

Change the Weather History Date:

Monday, January 30, 2012

  Actual Average (KGVL) Record (KGVL)
Temperature  
Mean Temperature 43 °F 43 °F  
Max Temperature 60 °F 52 °F - ()
Min Temperature 26 °F 34 °F - ()
Degree Days  
Heating Degree Days 22 22  
Month to date heating degree days 704  
Since 1 July heating degree days 1900  
Moisture  
Dew Point 26 °F    
Average Humidity 59    
Maximum Humidity 93    
Minimum Humidity 23    
Precipitation  
Precipitation 0.00 in 0.19 in - ()
Month to date precipitation 4.82  
Year to date precipitation 4.82  
Sea Level Pressure  
Sea Level Pressure 30.37 in    
Wind  
Wind Speed 1 mph ()    
Max Wind Speed 10 mph    
Max Gust Speed 16 mph    
Visibility 10.0 miles    
Events      
T = Trace of Precipitation, MM = Missing Value Source: Averaged Metar Reports

Daily Weather History Graph

Daily Weather History Graph

Search for Another Location

Airport or City:

Trip Planner

Search our weather history database for the weather conditions in past years. The results will help you decide how hot, cold, wet, or windy it might be!

Date:

Astronomy

Jan. 30, 2012 Rise Set
Actual Time 7:37 AM EST 6:05 PM EST
Civil Twilight 7:10 AM EST 6:31 PM EST
Nautical Twilight 6:40 AM EST 7:01 PM EST
Astronomical Twilight 6:10 AM EST 7:31 PM EST
Moon 11:21 AM EST (1/30) 12:27 AM EST (1/30)
Length of Visible Light 11h 21m
Length of Day
10h 28m
Waxing Crescent, 46% of the Moon is Illuminated
Jan 30
Waxing Crescent
Jan 30
First Quarter
Feb 7
Full
Feb 14
Last Quarter
Feb 21
New

Hourly Weather History & Observations

Time (EST) Temp. Windchill Dew Point Humidity Pressure Visibility Wind Dir Wind Speed Gust Speed Precip Events Conditions
12:15 AM 32.0 °F - 23.0 °F 69% 30.35 in 10.0 mi Calm Calm - N/A   Clear
12:35 AM 32.0 °F - 26.6 °F 80% 30.35 in 10.0 mi Calm Calm - N/A   Clear
12:55 AM 32.0 °F - 24.8 °F 75% 30.35 in 10.0 mi Calm Calm - N/A   Clear
1:15 AM 32.0 °F - 23.0 °F 69% 30.35 in 10.0 mi Calm Calm - N/A   Clear
1:35 AM 32.0 °F 28.7 °F 24.8 °F 75% 30.35 in 10.0 mi North 3.5 mph - N/A   Clear
1:55 AM 30.2 °F 25.4 °F 26.6 °F 86% 30.35 in 10.0 mi North 4.6 mph - N/A   Clear
2:15 AM 30.2 °F - 24.8 °F 80% 30.36 in 10.0 mi Calm Calm - N/A   Clear
2:35 AM 30.2 °F - 24.8 °F 80% 30.36 in 10.0 mi Calm Calm - N/A   Clear
2:55 AM 30.2 °F - 23.0 °F 75% 30.36 in 10.0 mi Calm Calm - N/A   Clear
3:15 AM 30.2 °F 26.7 °F 24.8 °F 80% 30.35 in 10.0 mi NNW 3.5 mph - N/A   Clear
3:35 AM 28.4 °F 24.6 °F 26.6 °F 93% 30.36 in 10.0 mi North 3.5 mph - N/A   Clear
3:55 AM 30.2 °F - 26.6 °F 86% 30.36 in 10.0 mi Calm Calm - N/A   Clear
4:15 AM 30.2 °F - 24.8 °F 80% 30.36 in 10.0 mi Calm Calm - N/A   Clear
4:35 AM 28.4 °F 24.6 °F 26.6 °F 93% 30.36 in 10.0 mi North 3.5 mph - N/A   Clear
4:55 AM 32.0 °F - 23.0 °F 69% 30.36 in 10.0 mi Calm Calm - N/A   Clear
5:15 AM 28.4 °F - 24.8 °F 86% 30.36 in 10.0 mi Calm Calm - N/A   Clear
5:35 AM 30.2 °F - 24.8 °F 80% 30.36 in 10.0 mi Calm Calm - N/A   Clear
5:55 AM 28.4 °F 24.6 °F 24.8 °F 86% 30.36 in 10.0 mi North 3.5 mph - N/A   Clear
6:15 AM 28.4 °F - 24.8 °F 86% 30.37 in 10.0 mi Calm Calm - N/A   Clear
6:35 AM 28.4 °F - 24.8 °F 86% 30.37 in 10.0 mi Calm Calm - N/A   Clear
6:55 AM 28.4 °F - 23.0 °F 80% 30.38 in 10.0 mi Calm Calm - N/A   Clear
7:15 AM 28.4 °F - 24.8 °F 86% 30.39 in 10.0 mi Calm Calm - N/A   Clear
7:35 AM 28.4 °F - 24.8 °F 86% 30.39 in 10.0 mi Calm Calm - N/A   Clear
7:55 AM 26.6 °F - 24.8 °F 93% 30.40 in 10.0 mi Calm Calm - N/A   Clear
8:15 AM 30.2 °F - 23.0 °F 75% 30.41 in 10.0 mi Calm Calm - N/A   Clear
8:35 AM 32.0 °F - 26.6 °F 80% 30.42 in 10.0 mi Calm Calm - N/A   Clear
8:55 AM 32.0 °F - 26.6 °F 80% 30.43 in 10.0 mi Calm Calm - N/A   Clear
9:15 AM 33.8 °F - 30.2 °F 87% 30.43 in 10.0 mi Calm Calm - N/A   Clear
9:35 AM 35.6 °F - 30.2 °F 81% 30.43 in 10.0 mi Calm Calm - N/A   Clear
9:55 AM 39.2 °F - 30.2 °F 70% 30.42 in 10.0 mi Calm Calm - N/A   Clear
10:35 AM 44.6 °F - 30.2 °F 57% 30.43 in 10.0 mi Calm Calm - N/A   Clear
11:15 AM 50.0 °F - 28.4 °F 43% 30.43 in 10.0 mi Calm Calm - N/A   Clear
11:35 AM 51.8 °F - 30.2 °F 44% 30.44 in 10.0 mi South 4.6 mph - N/A   Clear
11:55 AM 53.6 °F - 28.4 °F 38% 30.43 in 10.0 mi SSW 3.5 mph - N/A   Clear
12:15 PM 53.6 °F - 26.6 °F 35% 30.42 in 10.0 mi SW 3.5 mph - N/A   Clear
12:35 PM 55.4 °F - 23.0 °F 29% 30.42 in 10.0 mi Calm Calm - N/A   Clear
12:55 PM 57.2 °F - 24.8 °F 29% 30.41 in 10.0 mi NE 3.5 mph - N/A   Clear
1:15 PM 59.0 °F - 23.0 °F 25% 30.40 in 10.0 mi SSW 5.8 mph - N/A   Clear
2:15 PM 60.8 °F - 26.6 °F 27% 30.37 in 10.0 mi SW 9.2 mph - N/A   Clear
2:35 PM 59.0 °F - 24.8 °F 27% 30.36 in 10.0 mi SW 6.9 mph - N/A   Clear
2:55 PM 60.8 °F - 23.0 °F 23% 30.36 in 10.0 mi West 4.6 mph - N/A   Clear
3:15 PM 60.8 °F - 23.0 °F 23% 30.36 in 10.0 mi WSW 8.1 mph - N/A   Clear
3:35 PM 60.8 °F - 24.8 °F 25% 30.36 in 10.0 mi SW 10.4 mph 16.1 mph N/A   Clear
3:55 PM 60.8 °F - 23.0 °F 23% 30.35 in 10.0 mi WNW 3.5 mph - N/A   Clear
4:15 PM 60.8 °F - 24.8 °F 25% 30.34 in 10.0 mi SSW 8.1 mph - N/A   Clear
4:35 PM 60.8 °F - 24.8 °F 25% 30.34 in 10.0 mi WSW 5.8 mph - N/A   Clear
4:55 PM 59.0 °F - 26.6 °F 29% 30.34 in 10.0 mi WSW 3.5 mph - N/A   Clear
5:15 PM 59.0 °F - 24.8 °F 27% 30.33 in 10.0 mi Calm Calm - N/A   Clear
5:35 PM 57.2 °F - 23.0 °F 27% 30.34 in 10.0 mi SW 4.6 mph - N/A   Clear
5:55 PM 57.2 °F - 24.8 °F 29% 30.34 in 10.0 mi SSW 3.5 mph - N/A   Clear
6:15 PM 55.4 °F - 23.0 °F 29% 30.34 in 10.0 mi Calm Calm - N/A   Clear
6:35 PM 55.4 °F - 23.0 °F 29% 30.34 in 10.0 mi Calm Calm - N/A   Clear
6:55 PM 55.4 °F - 23.0 °F 29% 30.35 in 10.0 mi Calm Calm - N/A   Clear
7:15 PM 53.6 °F - 24.8 °F 33% 30.35 in 10.0 mi Calm Calm - N/A   Clear
7:55 PM 48.2 °F - 26.6 °F 43% 30.36 in 10.0 mi Calm Calm - N/A   Clear
8:15 PM 50.0 °F - 26.6 °F 40% 30.36 in 10.0 mi Calm Calm - N/A   Clear
8:35 PM 44.6 °F - 28.4 °F 53% 30.36 in 10.0 mi Calm Calm - N/A   Clear
8:55 PM 46.4 °F - 26.6 °F 46% 30.36 in 10.0 mi Calm Calm - N/A   Clear
9:15 PM 42.8 °F - 28.4 °F 57% 30.37 in 10.0 mi Calm Calm - N/A   Clear
9:35 PM 41.0 °F - 28.4 °F 61% 30.37 in 10.0 mi Calm Calm - N/A   Clear
9:55 PM 41.0 °F 39.0 °F 28.4 °F 61% 30.36 in 10.0 mi North 3.5 mph - N/A   Clear
10:15 PM 41.0 °F - 26.6 °F 57% 30.37 in 10.0 mi Calm Calm - N/A   Clear
10:35 PM 39.2 °F 37.0 °F 28.4 °F 65% 30.36 in 10.0 mi North 3.5 mph - N/A   Clear
10:55 PM 37.4 °F 34.9 °F 28.4 °F 70% 30.36 in 10.0 mi North 3.5 mph - N/A   Clear
11:15 PM 37.4 °F 34.9 °F 28.4 °F 70% 30.37 in 10.0 mi North 3.5 mph - N/A   Clear
11:35 PM 37.4 °F 34.9 °F 28.4 °F 70% 30.37 in 10.0 mi North 3.5 mph - N/A   Clear
11:55 PM 37.4 °F - 28.4 °F 70% 30.38 in 10.0 mi Calm Calm - N/A   Clear